DW9151 Weather Reports


time (UTC)temp
C
wind
direction
speed
KPH
gust
KPH
rain 1hr
cm
rain 24hr
cm
rain mn
cm
humidity
%
barometer
mb
20260502214621 8 18 3.2 4.8 0.00 0.00 0.00 34 1023.5
20260502214121 8 17 3.2 4.8 0.00 0.00 0.00 34 1023.5
20260502213621 8 6 3.2 4.8 0.00 0.00 0.00 34 1023.6
20260502213121 8 17 3.2 4.8 0.00 0.00 0.00 33 1023.6
20260502212621 8 20 3.2 4.8 0.00 0.00 0.00 34 1023.6
20260502212120 8 16 3.2 4.8 0.00 0.00 0.00 34 1023.7
20260502211120 8 15 3.2 4.8 0.00 0.00 0.00 35 1023.8
20260502210621 8 14 3.2 4.8 0.00 0.00 0.00 33 1023.8
20260502210122 8 19 4.8 9.7 0.00 0.00 0.00 30 1023.9
20260502205621 8 18 3.2 8.0 0.00 0.00 0.00 34 1023.8
20260502205120 8 19 3.2 4.8 0.00 0.00 0.00 36 1023.9
20260502204621 8 17 4.8 8.0 0.00 0.00 0.00 30 1023.9
20260502204121 8 17 3.2 8.0 0.00 0.00 0.00 30 1023.9
20260502203120 8 13 3.2 4.8 0.00 0.00 0.00 30 1023.9
20260502202620 8 17 3.2 4.8 0.00 0.00 0.00 33 1024.0
20260502202121 8 19 3.2 4.8 0.00 0.00 0.00 31 1023.9
20260502201120 8 17 3.2 4.8 0.00 0.00 0.00 34 1024.0
20260502200621 8 19 3.2 4.8 0.00 0.00 0.00 30 1024.0
20260502200121 8 19 3.2 4.8 0.00 0.00 0.00 31 1024.0
20260502195621 8 19 3.2 4.8 0.00 0.00 0.00 31 1024.0
20260502194620 8 18 3.2 8.0 0.00 0.00 0.00 34 1023.8
20260502193621 8 14 3.2 4.8 0.00 0.00 0.00 56 1023.8
20260502193121 8 17 4.8 9.7 0.00 0.00 0.00 47 1023.8
20260502192120 8 18 3.2 8.0 0.00 0.00 0.00 53 1023.6
20260502191621 8 16 1.6 4.8 0.00 0.00 0.00 62 1023.6
20260502191121 8 19 3.2 8.0 0.00 0.00 0.00 59 1023.6
20260502190620 8 18 4.8 4.8 0.00 0.00 0.00 58 1023.5
20260502190121 8 19 4.8 4.8 0.00 0.00 0.00 60 1023.5
20260502185620 8 18 8.0 11.3 0.00 0.00 0.00 62 1023.5
20260502185120 8 19 3.2 4.8 0.00 0.00 0.00 62 1023.5
20260502183620 8 19 4.8 8.0 0.00 0.00 0.00 62 1023.3
20260502183120 8 16 4.8 8.0 0.00 0.00 0.00 61 1023.3
20260502182620 8 17 3.2 4.8 0.00 0.00 0.00 62 1023.3
20260502182120 8 16 4.8 9.7 0.00 0.00 0.00 61 1023.2
20260502181121 8 19 3.2 4.8 0.00 0.00 0.00 62 1023.3
20260502180620 8 20 4.8 4.8 0.00 0.00 0.00 62 1023.3
20260502180120 8 20 1.6 4.8 0.00 0.00 0.00 62 1023.2
20260502164120 8 8 4.8 9.7 0.00 0.00 0.00 67 1023.3
20260502163120 8 10 4.8 12.9 0.00 0.00 0.00 67 1023.4
20260502161620 8 9 4.8 11.3 0.00 0.00 0.00 65 1023.7
20260502160620 8 6 3.2 8.0 0.00 0.00 0.00 66 1024.0
20260502160120 8 14 4.8 8.0 0.00 0.00 0.00 66 1024.0
20260502152120 9 14 8.0 11.3 0.00 0.00 0.00 65 1024.3
20260502151620 9 19 4.8 9.7 0.00 0.00 0.00 65 1024.4
20260502151120 9 20 4.8 9.7 0.00 0.00 0.00 65 1024.4
20260502150621 9 18 6.4 11.3 0.00 0.00 0.00 65 1024.4
20260502150120 9 18 4.8 9.7 0.00 0.00 0.00 64 1024.6
20260502140120 10 15 1.6 8.0 0.00 0.00 0.00 62 1025.0
20260502130620 9 18 9.7 19.3 0.00 0.00 0.00 63 1025.4
20260502130120 10 17 4.8 11.3 0.00 0.00 0.00 64 1025.4
20260502123120 10 17 8.0 12.9 0.00 0.00 0.00 62 1025.6
20260502122620 10 15 8.0 19.3 0.00 0.00 0.00 62 1025.6
20260502122120 10 16 4.8 9.7 0.00 0.00 0.00 62 1025.7
20260502121620 10 16 4.8 9.7 0.00 0.00 0.00 64 1025.7
20260502121120 10 13 4.8 19.3 0.00 0.00 0.00 65 1025.7
20260502120620 9 16 8.0 12.9 0.00 0.00 0.00 67 1025.7
20260502120120 9 14 8.0 14.5 0.00 0.00 0.00 64 1025.7
20260502115620 10 15 9.7 14.5 0.00 0.00 0.00 62 1025.8
20260502115120 9 15 6.4 16.1 0.00 0.00 0.00 63 1025.9
20260502114620 10 15 8.0 12.9 0.00 0.00 0.00 61 1026.0
20260502114120 11 16 4.8 9.7 0.00 0.00 0.00 58 1026.1
20260502113620 11 16 6.4 11.3 0.00 0.00 0.00 58 1026.1
20260502113120 11 16 4.8 9.7 0.00 0.00 0.00 60 1026.2
20260502112620 11 14 3.2 8.0 0.00 0.00 0.00 59 1026.2
20260502112120 11 18 3.2 4.8 0.00 0.00 0.00 58 1026.3
20260502111620 10 14 3.2 8.0 0.00 0.00 0.00 63 1026.4
20260502111120 10 14 3.2 8.0 0.00 0.00 0.00 60 1026.4
20260502110619 10 13 4.8 11.3 0.00 0.00 0.00 59 1026.5
20260502110120 11 15 4.8 8.0 0.00 0.00 0.00 58 1026.5
20260502105120 10 19 3.2 4.8 0.00 0.00 0.00 59 1026.6
20260502104619 10 11 4.8 8.0 0.00 0.00 0.00 61 1026.6
20260502104120 10 12 3.2 11.3 0.00 0.00 0.00 59 1026.8
20260502103620 10 15 3.2 4.8 0.00 0.00 0.00 59 1026.8
20260502103120 11 13 4.8 8.0 0.00 0.00 0.00 58 1026.8
20260502102620 10 13 1.6 8.0 0.00 0.00 0.00 59 1026.8
20260502102120 10 17 3.2 8.0 0.00 0.00 0.00 57 1026.9
20260502101620 10 15 4.8 8.0 0.00 0.00 0.00 59 1026.9
20260502101120 10 18 3.2 4.8 0.00 0.00 0.00 56 1026.8
20260502100620 11 22 3.2 4.8 0.00 0.00 0.00 58 1026.9
20260502100120 10 13 3.2 11.3 0.00 0.00 0.00 59 1027.0
20260502091120 10 4 3.2 4.8 0.00 0.00 0.00 55 1026.9
20260502090619 9 23 8.0 12.9 0.00 0.00 0.00 57 1027.0
20260502090120 10 25 3.2 4.8 0.00 0.00 0.00 57 1027.0
20260502071120 9 21 1.6 4.8 0.00 0.00 0.00 54 1027.6
20260502070620 8 18 3.2 8.0 0.00 0.00 0.00 55 1027.5
20260502070120 8 16 3.2 4.8 0.00 0.00 0.00 55 1027.6
20260502065120 8 21 1.6 4.8 0.00 0.00 0.00 56 1027.6
20260502064619 8 23 1.6 4.8 0.00 0.00 0.00 56 1027.6
20260502064122 8 19 3.2 8.0 0.00 0.00 0.00 56 1027.7
20260502063620 8 16 3.2 4.8 0.00 0.00 0.00 56 1027.6
20260502063119 7 13 3.2 8.0 0.00 0.00 0.00 56 1027.6
20260502062619 7 16 3.2 8.0 0.00 0.00 0.00 56 1027.7
20260502062120 7 15 3.2 4.8 0.00 0.00 0.00 57 1027.6
20260502061620 7 15 3.2 4.8 0.00 0.00 0.00 58 1027.6
20260502060620 7 15 4.8 8.0 0.00 0.00 0.00 58 1027.6
20260502060120 7 9 3.2 8.0 0.00 0.00 0.00 58 1027.7
20260502055619 7 8 1.6 4.8 0.00 0.00 0.00 58 1027.7
20260502055119 6 19 1.6 4.8 0.00 0.00 0.00 59 1027.8
20260502054619 6 11 3.2 8.0 0.00 0.00 0.00 61 1027.7
20260502054119 6 3 3.2 8.0 0.00 0.00 0.00 61 1027.7
20260502053619 5 20 3.2 4.8 0.00 0.00 0.00 62 1027.8
20260502053119 5 21 3.2 9.7 0.00 0.00 0.00 63 1027.8
20260502052620 5 19 4.8 11.3 0.00 0.00 0.00 64 1027.8
20260502052119 5 18 4.8 11.3 0.00 0.00 0.00 64 1027.8
20260502051120 5 15 4.8 11.3 0.00 0.00 0.00 64 1027.9
20260502050120 5 13 4.8 9.7 0.00 0.00 0.00 66 1028.0
20260502045119 4 15 4.8 9.7 0.00 0.00 0.00 67 1027.9
20260502044119 3 16 4.8 11.3 0.00 0.00 0.00 68 1027.9
20260502043619 3 18 4.8 9.7 0.00 0.00 0.00 68 1027.8
20260502043120 3 9 4.8 11.3 0.00 0.00 0.00 70 1027.8
20260502042619 3 18 4.8 9.7 0.00 0.00 0.00 70 1027.9
20260502042119 3 16 4.8 11.3 0.00 0.00 0.00 71 1027.8
20260502041120 2 16 4.8 12.9 0.00 0.00 0.00 71 1027.9
20260502040620 2 19 4.8 11.3 0.00 0.00 0.00 72 1027.9
20260502040119 2 20 4.8 11.3 0.00 0.00 0.00 72 1027.9
20260502035619 2 20 4.8 12.9 0.00 0.00 0.00 72 1027.9
20260502035120 2 18 4.8 9.7 0.00 0.00 0.00 71 1027.9
20260502034620 2 17 4.8 11.3 0.00 0.00 0.00 71 1027.9
20260502034119 2 19 4.8 11.3 0.00 0.00 0.00 70 1028.0
20260502033619 2 19 3.2 8.0 0.00 0.00 0.00 71 1028.0
20260502033119 2 18 4.8 9.7 0.00 0.00 0.00 70 1027.9
20260502032620 2 18 3.2 8.0 0.00 0.00 0.00 71 1027.9
20260502032119 2 13 3.2 8.0 0.00 0.00 0.00 71 1028.0
20260502031620 2 18 3.2 8.0 0.00 0.00 0.00 71 1027.9
20260502031119 2 18 4.8 9.7 0.00 0.00 0.00 71 1028.0
20260502030619 2 19 3.2 8.0 0.00 0.00 0.00 71 1028.1
20260502030119 2 21 3.2 9.7 0.00 0.00 0.00 71 1028.1
20260502025620 2 21 4.8 9.7 0.00 0.00 0.00 71 1028.2
20260502025119 2 18 4.8 8.0 0.00 0.00 0.00 72 1028.1
20260502024619 2 17 4.8 8.0 0.00 0.00 0.00 71 1028.3
20260502024119 2 21 3.2 8.0 0.00 0.00 0.00 71 1028.3
20260502023619 2 18 3.2 4.8 0.00 0.00 0.00 71 1028.3
20260502023119 2 21 1.6 4.8 0.00 0.00 0.00 70 1028.4
20260502022119 3 22 3.2 8.0 0.00 0.00 0.00 69 1028.4
20260502021619 3 21 3.2 8.0 0.00 0.00 0.00 69 1028.5
20260502021119 3 19 3.2 9.7 0.00 0.00 0.00 68 1028.6
20260502020619 3 18 3.2 4.8 0.00 0.00 0.00 67 1028.6
20260502020120 3 18 3.2 8.0 0.00 0.00 0.00 67 1028.6
20260502015619 3 17 3.2 4.8 0.00 0.00 0.00 66 1028.6
20260502015119 3 19 3.2 4.8 0.00 0.00 0.00 66 1028.6
20260502014619 3 21 4.8 8.0 0.00 0.00 0.00 65 1028.5
20260502014119 4 17 1.6 4.8 0.00 0.00 0.00 64 1028.5
20260502013619 4 18 3.2 4.8 0.00 0.00 0.00 63 1028.6
20260502013119 4 19 3.2 4.8 0.00 0.00 0.00 62 1028.6
20260502012621 4 19 1.6 4.8 0.00 0.00 0.00 63 1028.7
20260502012119 4 19 3.2 4.8 0.00 0.00 0.00 63 1028.8
20260502011119 4 19 3.2 4.8 0.00 0.00 0.00 63 1028.9
20260502010619 4 19 3.2 4.8 0.00 0.00 0.00 63 1028.9
20260502005619 4 18 3.2 4.8 0.00 0.00 0.00 63 1029.0
20260502005119 4 18 4.8 4.8 0.00 0.00 0.00 63 1029.0
20260502004619 4 18 3.2 4.8 0.00 0.00 0.00 62 1029.0
20260502004119 4 18 3.2 8.0 0.00 0.00 0.00 62 1029.0
20260502003619 4 17 4.8 8.0 0.00 0.00 0.00 62 1029.1
20260502003119 5 18 3.2 8.0 0.00 0.00 0.00 62 1029.1
20260502002619 5 19 4.8 8.0 0.00 0.00 0.00 62 1029.2
20260502001619 5 18 8.0 9.7 0.00 0.00 0.00 62 1029.3
20260502001119 5 17 4.8 9.7 0.00 0.00 0.00 62 1029.3
20260502000619 5 17 8.0 9.7 0.00 0.00 0.00 62 1029.3
20260501235619 5 19 3.2 4.8 0.00 0.00 0.00 61 1029.3
20260501235119 5 17 3.2 4.8 0.00 0.00 0.00 61 1029.4
20260501234119 5 15 6.4 9.7 0.00 0.00 0.00 60 1029.4
20260501233619 5 16 4.8 4.8 0.00 0.00 0.00 60 1029.5
20260501233119 5 17 4.8 8.0 0.00 0.00 0.00 60 1029.5
20260501232619 5 17 4.8 8.0 0.00 0.00 0.00 60 1029.5
20260501231619 5 17 3.2 4.8 0.00 0.00 0.00 60 1029.6
20260501230619 5 17 8.0 9.7 0.00 0.00 0.00 60 1029.7
20260501230119 5 16 3.2 4.8 0.00 0.00 0.00 61 1029.7
20260501225619 5 16 4.8 8.0 0.00 0.00 0.00 61 1029.8
20260501225119 5 17 3.2 4.8 0.00 0.00 0.00 65 1029.8
20260501224619 5 16 4.8 4.8 0.00 0.00 0.00 64 1029.8
20260501224119 5 15 4.8 8.0 0.00 0.00 0.00 63 1029.8
20260501223619 5 16 6.4 8.0 0.00 0.00 0.00 63 1029.8
20260501222619 5 18 3.2 4.8 0.00 0.00 0.00 61 1029.8
20260501222119 5 16 4.8 8.0 0.00 0.00 0.00 61 1029.8
20260501221619 5 18 3.2 8.0 0.00 0.00 0.00 62 1029.8
20260501221119 5 16 4.8 9.7 0.00 0.00 0.00 62 1029.8
20260501220619 5 16 4.8 8.0 0.00 0.00 0.00 62 1029.7
20260501220119 5 18 3.2 4.8 0.00 0.00 0.00 63 1029.7
20260501215619 5 17 4.8 8.0 0.00 0.00 0.00 63 1029.7
20260501215119 5 15 4.8 4.8 0.00 0.00 0.00 63 1029.7